Regional Weather Roundup
Issued by NWS

Home | Current Version | Previous Version | Graphics & Text | Print | Product List | Glossary On
Versions: 1 2 3 4 5 6 7 8 9 10 11 12 13 14 15 16 17 18 19 20 21 22 23 24 25 26 27 28
000
ASUS45 KPSR 110310
RWRAZ

ARIZONA HOURLY REGIONAL WEATHER ROUNDUP
NATIONAL WEATHER SERVICE PHOENIX AZ
800 PM MST SUN DEC 10 2017

NOTE: FAIR INDICATES FEW OR NO CLOUDS BELOW 12,000 FEET WITH NO
SIGNIFICANT WEATHER AND/OR OBSTRUCTIONS TO VISIBILITY.

AZZ001>003-036-110400-
NORTHWEST ARIZONA

CITY           SKY/WX    TMP DP  RH WIND       PRES   REMARKS
BULLHEAD CITY  MOCLDY    66   7   9 N21G28    30.22S
KINGMAN        MOCLDY    40   2  20 E6        30.33S
$$

AZZ004>008-015-016-018-110400-
NORTH CENTRAL ARIZONA

CITY           SKY/WX    TMP DP  RH WIND       PRES   REMARKS
GRAND CANYON   PTCLDY    20  -5  33 NE7       30.47F WCI  11
WILLIAMS       MOCLDY    32 -17  11 S10       30.42S WCI  24
PRESCOTT       MOCLDY    42   2  18 SW3       30.36S
FLAGSTAFF      MOCLDY    35  -9  15 E8        30.47R WCI  29
PAYSON         MOCLDY    50 -11   7 E7        30.37S
PAGE           PTCLDY    36  15  42 CALM      30.48S
$$

AZZ009>014-017-110400-
NORTHEAST ARIZONA

CITY           SKY/WX    TMP DP  RH WIND       PRES   REMARKS
WINSLOW        CLOUDY    26  -3  28 SW9       30.47R WCI  17
SAINT JOHNS    MOCLDY    36   5  27 CALM      30.45R
WINDOW ROCK    PTCLDY    22  -4  32 CALM      30.49R
SHOW LOW       PTCLDY    30   3  31 E5        30.47S WCI  25
$$

AZZ540-542>544-546-548-110400-
GREATER PHOENIX AREA

CITY           SKY/WX    TMP DP  RH WIND       PRES   REMARKS
PHOENIX        CLOUDY    66  11  11 E12       30.16R
BUCKEYE        CLOUDY    64  61  88 NE8       30.17S
LUKE AFB       CLOUDY    59  24  26 NE7       30.16R
DEER VALLEY    CLOUDY    62   8  12 E5        30.19R
SCOTTSDALE     CLOUDY    69  13  11 E8        30.20R
MESA-FALCON    MOCLDY    66  10  11 NE9       30.19R
MESA-GATEWAY   PTCLDY    63   3   9 SE6       30.20
CHANDLER       MOCLDY    61  19  20 E6        30.18R
$$

AZZ539-553-110400-
SOUTHWEST MARICOPA COUNTY AND PINAL COUNTY

CITY           SKY/WX    TMP DP  RH WIND       PRES   REMARKS
CASA GRANDE    NOT AVBL
$$

AZZ503-504-507>509-110400-
SOUTHEAST ARIZONA

CITY           SKY/WX    TMP DP  RH WIND       PRES   REMARKS
TUCSON         CLOUDY    63  15  15 E6        30.25R
DAVIS-MONTHAN  CLOUDY    58  15  18 SE8       30.23R
RYAN FIELD     CLEAR     64  18  16 E12       30.23R
NOGALES        CLOUDY    60  14  16 VRB3      30.27R
SIERRA VISTA   CLOUDY    51  14  23 S10       30.34R
DOUGLAS        CLOUDY    54  14  20 E10       30.33R
SAFFORD        MOCLDY    56  11  16 SE10      30.35R
$$

AZZ532-110400-
SOUTHWEST ARIZONA

CITY           SKY/WX    TMP DP  RH WIND       PRES   REMARKS
YUMA           MOCLDY    63  17  17 NW7       30.15S
$$

CAZ041-043-047-048-061-525>527-560>570-110400-
SOUTHERN CALIFORNIA

CITY           SKY/WX    TMP DP  RH WIND       PRES   REMARKS
DOWNTOWN L.A.  CLOUDY    68  26  20 CALM      30.11R
L.A. AIRPORT   CLOUDY    74  12   9 CALM      30.12R
SAN DIEGO      PTCLDY    66  25  21 CALM      30.14R
BURBANK        CLOUDY    67  25  20 CALM      30.13R
ONTARIO        CLOUDY    70  16  12 NE5       30.15R
RIVERSIDE      CLOUDY    71   8   8 NE6       30.17R
PALM SPRINGS   CLOUDY    71  12  10 W6        30.22R
EL CENTRO NAS  MOCLDY    60  16  18 W7        30.18S
IMPERIAL       MOCLDY    60  25  26 W3        30.16S
BLYTHE         CLOUDY    65   6  10 N10       30.18R
NEEDLES        MOCLDY    66   6   9 N12       30.23R
$$

NVZ020-UTZ003-110400-
SOUTHERN NEVADA-UTAH

CITY           SKY/WX    TMP DP  RH WIND       PRES   REMARKS
LAS VEGAS      CLOUDY    53   5  14 SW6       30.32R
SALT LAKE CITY CLEAR     29  26  89 CALM      30.60R FOG
$$

NMZ009-TXZ055-110400-
NEW MEXICO-WEST TEXAS

CITY           SKY/WX    TMP DP  RH WIND       PRES   REMARKS
ALBUQUERQUE    CLOUDY    35   1  23 E5        30.45S WCI  31
EL PASO        MOCLDY    47  26  44 SE3       30.42S
$$


........................KEY........................
SKY/WX - SKY CONDITION/WEATHER
TMP    - TEMPERATURE IN FAHRENHEIT
DP     - DEW POINT IN FAHRENHEIT
RH     - RELATIVE HUMIDITY IN PERCENT
WIND   - DIRECTION AND SPEED IN MILES PER HOUR (MPH)
VRB    - VARIABLE WIND DIRECTION
PRES   - MEAN SEA LEVEL PRESSURE IN INCHES OF MERCURY
         F - FALLING PRESSURE   R - RISING PRESSURE
         S - STEADY PRESSURE
VSB    - VISIBILITY IN MILES
HX     - HEAT INDEX IN FAHRENHEIT
WCI    - WIND CHILL INDEX IN FAHRENHEIT
TC     - TEMPERATURE IN CELSIUS WHICH IS ALSO KNOWN AS
         TEMPERATURE IN CENTIGRADE
AFB    - AIR FORCE BASE
         LUKE AFB IS LUKE AIR FORCE BASE
         DAVIS-MONTHAN IS DAVIS-MONTHAN AIR FORCE BASE
NAS    - NAVAL AIR STATION
         EL CENTRO NAS IS EL CENTRO NAVAL AIR STATION
N/A    - NOT AVAILABLE





USA.gov is the U.S. government's official web portal to all federal, state and local government web resources and services.